When you browse on this site, cookies collect data to enhance your experience and personalize the content and advertising you see.
Visit our Privacy Policy to learn more. By continuing to use the site, you agree to this use of cookies and data.
  • în România
  • Lista ţărilor
  • Pe 7 zile
  • Temperatura apei
  • Hartă satelitară
  • Meteo pe hartă
  • Widget-uri
  • user-avatar
    Intrare

    Meteo pe oră la Albany

    Astăzi, 17 Ianuarie, Joi

    Timp Temperatura Precipitaţii Vânt Presiune Umiditate
    00:00 +16°C° 0 mm 3 m/s 755 mmHg 86%
    01:00 +16°C° 0 mm 3 m/s 754 mmHg 87%
    02:00 +16°C° 0 mm 3 m/s 754 mmHg 89%
    03:00 +16°C° 0 mm 3 m/s 754 mmHg 90%
    04:00 +14°C° 0 mm 4 m/s 754 mmHg 90%
    05:00 +14°C° 0 mm 4 m/s 754 mmHg 91%
    06:00 +17°C° 0 mm 4 m/s 755 mmHg 83%
    07:00 +19°C° 0 mm 4 m/s 755 mmHg 76%
    08:00 +21°C° 0 mm 4 m/s 755 mmHg 68%
    09:00 +21°C° 0.1 mm 4 m/s 755 mmHg 67%
    10:00 +21°C° 0.1 mm 5 m/s 756 mmHg 67%
    11:00 +21°C° 0.1 mm 5 m/s 756 mmHg 66%
    12:00 +21°C° 0.1 mm 5 m/s 756 mmHg 65%
    13:00 +21°C° 0.1 mm 5 m/s 756 mmHg 64%
    14:00 +21°C° 0.1 mm 5 m/s 756 mmHg 63%
    15:00 +21°C° 0 mm 5 m/s 756 mmHg 62%
    16:00 +21°C° 0 mm 5 m/s 756 mmHg 62%
    17:00 +21°C° 0 mm 5 m/s 756 mmHg 62%
    18:00 +20°C° 0 mm 5 m/s 756 mmHg 67%
    19:00 +18°C° 0 mm 4 m/s 757 mmHg 71%
    20:00 +17°C° 0 mm 4 m/s 757 mmHg 75%
    21:00 +17°C° 0 mm 4 m/s 758 mmHg 75%
    22:00 +17°C° 0 mm 3 m/s 759 mmHg 75%
    23:00 +16°C° 0 mm 3 m/s 759 mmHg 75%

    Mâine, 18 Ianuarie, Vineri

    Timp Temperatura Precipitaţii Vânt Presiune Umiditate
    00:00 +16°C° 0 mm 3 m/s 759 mmHg 77%
    01:00 +15°C° 0 mm 2 m/s 759 mmHg 79%
    02:00 +14°C° 0 mm 2 m/s 759 mmHg 80%
    03:00 +14°C° 0 mm 1 m/s 759 mmHg 82%
    04:00 +14°C° 0 mm 1 m/s 759 mmHg 83%
    05:00 +13°C° 0 mm 1 m/s 759 mmHg 84%
    06:00 +15°C° 0 mm 1 m/s 760 mmHg 75%
    07:00 +19°C° 0 mm 1 m/s 760 mmHg 65%
    08:00 +21°C° 0 mm 1 m/s 761 mmHg 56%
    09:00 +22°C° 0 mm 1 m/s 761 mmHg 50%
    10:00 +24°C° 0 mm 2 m/s 761 mmHg 45%
    11:00 +26°C° 0 mm 2 m/s 761 mmHg 39%
    12:00 +26°C° 0 mm 3 m/s 761 mmHg 39%
    13:00 +26°C° 0 mm 4 m/s 761 mmHg 40%
    14:00 +27°C° 0 mm 4 m/s 760 mmHg 40%
    15:00 +26°C° 0 mm 4 m/s 760 mmHg 44%
    16:00 +25°C° 0 mm 4 m/s 760 mmHg 48%
    17:00 +23°C° 0 mm 4 m/s 760 mmHg 52%
    18:00 +21°C° 0 mm 4 m/s 760 mmHg 58%
    19:00 +19°C° 0 mm 4 m/s 760 mmHg 65%
    20:00 +18°C° 0 mm 4 m/s 761 mmHg 71%
    21:00 +17°C° 0 mm 4 m/s 761 mmHg 74%
    22:00 +17°C° 0 mm 4 m/s 761 mmHg 78%
    23:00 +15°C° 0 mm 4 m/s 762 mmHg 81%

    Poimâine, 19 Ianuarie, Sâmbătă

    Timp Temperatura Precipitaţii Vânt Presiune Umiditate
    00:00 +15°C° 0 mm 4 m/s 761 mmHg 82%
    01:00 +15°C° 0 mm 4 m/s 761 mmHg 83%
    02:00 +14°C° 0 mm 3 m/s 761 mmHg 85%
    03:00 +14°C° 0 mm 3 m/s 761 mmHg 85%
    04:00 +14°C° 0 mm 3 m/s 761 mmHg 85%
    05:00 +14°C° 0 mm 3 m/s 761 mmHg 85%
    06:00 +17°C° 0 mm 3 m/s 761 mmHg 73%
    07:00 +19°C° 0 mm 3 m/s 761 mmHg 61%
    08:00 +21°C° 0 mm 3 m/s 761 mmHg 49%
    09:00 +25°C° 0 mm 3 m/s 761 mmHg 41%
    10:00 +28°C° 0 mm 3 m/s 761 mmHg 34%
    11:00 +31°C° 0 mm 3 m/s 760 mmHg 26%
    12:00 +32°C° 0 mm 4 m/s 760 mmHg 27%
    13:00 +33°C° 0 mm 5 m/s 759 mmHg 29%
    14:00 +33°C° 0 mm 5 m/s 759 mmHg 31%
    15:00 +32°C° 0 mm 5 m/s 758 mmHg 36%
    16:00 +29°C° 0 mm 5 m/s 758 mmHg 41%
    17:00 +28°C° 0 mm 6 m/s 758 mmHg 46%
    18:00 +26°C° 0 mm 5 m/s 758 mmHg 55%
    19:00 +23°C° 0 mm 5 m/s 758 mmHg 64%
    20:00 +21°C° 0 mm 4 m/s 758 mmHg 73%
    21:00 +20°C° 0 mm 4 m/s 759 mmHg 76%
    22:00 +19°C° 0 mm 4 m/s 759 mmHg 79%
    23:00 +19°C° 0 mm 3 m/s 759 mmHg 82%

    20 Ianuarie, Duminică

    Timp Temperatura Precipitaţii Vânt Presiune Umiditate
    00:00 +19°C° 0 mm 3 m/s 759 mmHg 83%
    01:00 +18°C° 0 mm 3 m/s 758 mmHg 84%
    02:00 +18°C° 0 mm 2 m/s 758 mmHg 85%
    03:00 +18°C° 0 mm 2 m/s 758 mmHg 85%
    04:00 +18°C° 0 mm 2 m/s 757 mmHg 86%
    05:00 +18°C° 0 mm 2 m/s 757 mmHg 86%
    06:00 +20°C° 0 mm 2 m/s 757 mmHg 78%
    07:00 +22°C° 0 mm 3 m/s 757 mmHg 69%
    08:00 +26°C° 0 mm 3 m/s 757 mmHg 61%
    09:00 +29°C° 0 mm 3 m/s 757 mmHg 52%
    10:00 +31°C° 0 mm 3 m/s 757 mmHg 44%
    11:00 +35°C° 0 mm 3 m/s 756 mmHg 36%
    12:00 +35°C° 0 mm 4 m/s 756 mmHg 39%
    13:00 +34°C° 0 mm 5 m/s 755 mmHg 42%
    14:00 +33°C° 0 mm 5 m/s 754 mmHg 45%
    15:00 +32°C° 0 mm 5 m/s 754 mmHg 47%
    16:00 +30°C° 0 mm 4 m/s 754 mmHg 49%
    17:00 +29°C° 0 mm 4 m/s 754 mmHg 51%
    18:00 +27°C° 0 mm 3 m/s 754 mmHg 60%
    19:00 +25°C° 0 mm 3 m/s 754 mmHg 70%
    20:00 +23°C° 0 mm 2 m/s 755 mmHg 79%
    21:00 +21°C° 0 mm 2 m/s 755 mmHg 82%
    22:00 +20°C° 0 mm 2 m/s 755 mmHg 86%
    23:00 +20°C° 0 mm 2 m/s 755 mmHg 89%

    21 Ianuarie, Luni

    Timp Temperatura Precipitaţii Vânt Presiune Umiditate
    00:00 +19°C° 0 mm 2 m/s 754 mmHg 90%
    01:00 +19°C° 0 mm 2 m/s 753 mmHg 92%
    02:00 +19°C° 0 mm 2 m/s 753 mmHg 93%
    03:00 +18°C° 0 mm 2 m/s 753 mmHg 94%
    04:00 +18°C° 0 mm 2 m/s 753 mmHg 95%
    05:00 +18°C° 0 mm 3 m/s 753 mmHg 95%
    06:00 +19°C° 0 mm 3 m/s 754 mmHg 87%
    07:00 +21°C° 0 mm 3 m/s 754 mmHg 79%
    08:00 +22°C° 0 mm 4 m/s 755 mmHg 71%
    09:00 +23°C° 0 mm 4 m/s 755 mmHg 64%
    10:00 +26°C° 0 mm 5 m/s 755 mmHg 56%
    11:00 +27°C° 0 mm 5 m/s 755 mmHg 49%
    12:00 +27°C° 0 mm 6 m/s 754 mmHg 51%
    13:00 +26°C° 0 mm 6 m/s 754 mmHg 53%
    14:00 +26°C° 0 mm 6 m/s 754 mmHg 56%
    15:00 +24°C° 0 mm 6 m/s 754 mmHg 60%
    16:00 +23°C° 0 mm 7 m/s 755 mmHg 64%
    17:00 +23°C° 0 mm 7 m/s 755 mmHg 68%
    18:00 +21°C° 0.1 mm 7 m/s 756 mmHg 73%
    19:00 +20°C° 0.1 mm 7 m/s 756 mmHg 78%
    20:00 +17°C° 0.1 mm 7 m/s 757 mmHg 82%
    21:00 +17°C° 0 mm 7 m/s 757 mmHg 81%
    22:00 +16°C° 0 mm 7 m/s 758 mmHg 80%
    23:00 +16°C° 0 mm 7 m/s 758 mmHg 79%

    22 Ianuarie, Marţi

    Timp Temperatura Precipitaţii Vânt Presiune Umiditate
    00:00 +15°C° 0.1 mm 6 m/s 758 mmHg 77%
    01:00 +15°C° 0.1 mm 6 m/s 758 mmHg 74%
    02:00 +15°C° 0.1 mm 6 m/s 758 mmHg 72%
    03:00 +14°C° 0.1 mm 6 m/s 758 mmHg 71%
    04:00 +14°C° 0.1 mm 6 m/s 758 mmHg 70%
    05:00 +14°C° 0.1 mm 5 m/s 759 mmHg 69%
    06:00 +14°C° 0.1 mm 5 m/s 759 mmHg 66%
    07:00 +14°C° 0.1 mm 6 m/s 760 mmHg 62%
    08:00 +15°C° 0.1 mm 6 m/s 760 mmHg 59%
    09:00 +15°C° 0.1 mm 6 m/s 761 mmHg 57%
    10:00 +16°C° 0.1 mm 6 m/s 761 mmHg 55%
    11:00 +17°C° 0.1 mm 6 m/s 761 mmHg 53%
    12:00 +17°C° 0.1 mm 6 m/s 761 mmHg 53%
    13:00 +17°C° 0.1 mm 6 m/s 760 mmHg 52%
    14:00 +17°C° 0.1 mm 6 m/s 760 mmHg 52%
    15:00 +17°C° 0 mm 6 m/s 760 mmHg 52%
    16:00 +16°C° 0 mm 6 m/s 761 mmHg 53%
    17:00 +16°C° 0 mm 5 m/s 761 mmHg 53%
    18:00 +15°C° 0 mm 5 m/s 761 mmHg 57%
    19:00 +14°C° 0 mm 5 m/s 761 mmHg 61%
    20:00 +13°C° 0 mm 4 m/s 762 mmHg 65%
    21:00 +13°C° 0 mm 4 m/s 762 mmHg 64%
    22:00 +14°C° 0 mm 4 m/s 762 mmHg 63%
    23:00 +14°C° 0 mm 4 m/s 762 mmHg 62%
    Arată mai mult